This demonstration page uses our WeatherBlox Daily Observations layout. Learn more.

Left ArrowRight Arrow

31.31129, -92.44514

Hourly Observations for December 16, 2020

Temp ( °F °C ) Dew Point ( °F °C ) Humidity (%) Winds ( mph kmh ) Pressure ( in mb ) Visibility ( mi km ) Precip ( " mm )
12:08 am 00:08 Cloudy with Mist and Fog 43 6.1 42 5.6 97 97 NNW 9 15 29.97 1015 7 11 0.00 0.00
12:41 am 00:41 Cloudy with Mist and Fog 43 6.1 42 5.6 97 97 NW 8 13 29.97 1015 10 16 0.00 0.00
12:53 am 00:53 Cloudy with Mist and Fog 43 6.1 42 5.6 97 97 NW 8 13 29.98 1015 10 16 0.00 0.00
1:19 am 01:19 Cloudy with Mist and Fog 43 6.1 42 5.6 97 97 NNW 10 17 29.97 1015 8 13 0.00 0.00
1:53 am 01:53 Cloudy with Mist and Fog 42 5.6 41 5 96 96 NNW 9 15 29.98 1015 6 10 0.00 0.00
2:32 am 02:32 Cloudy with Mist and Fog 42 5.6 41 5 96 96 NW 8 13 29.97 1015 8 13 0.00 0.00
2:53 am 02:53 Cloudy with Mist and Fog 42 5.6 41 5 96 96 NW 10 17 29.98 1015 10 16 0.00 0.00
3:23 am 03:23 Cloudy with Mist and Fog 42 5.6 41 5 96 96 NW 8 13 29.97 1015 10 16 0.00 0.00
3:36 am 03:36 Cloudy with Mist and Fog 43 6.1 41 5 93 93 NW 13 20 29.98 1015 10 16 0.00 0.00
3:53 am 03:53 Cloudy with Mist and Fog 42 5.6 40 4.4 92 92 NNW 12 19 29.99 1016 10 16 0.00 0.00
4:53 am 04:53 Cloudy with Mist and Fog 42 5.6 39 3.9 89 89 NNW 12 19 30.00 1016 10 16 0.00 0.00
5:53 am 05:53 Cloudy with Mist and Fog 41 5 39 3.9 93 93 NNW 8 13 30.02 1017 10 16 0.00 0.00
6:53 am 06:53 Cloudy with Mist and Fog 41 5 38 3.3 89 89 NW 12 19 30.06 1018 10 16 0.00 0.00
7:53 am 07:53 Cloudy with Mist and Fog 41 5 38 3.3 89 89 NNW 10 17 30.08 1019 10 16 0.00 0.00
8:48 am 08:48 Cloudy with Mist and Fog 41 5 37 3 87 87 NNW 9 15 30.09 1019 10 16 0.00 0.00
8:53 am 08:53 Cloudy with Mist and Fog 41 5 38 3.3 89 89 NW 9 15 30.10 1019 10 16 0.00 0.00
9:35 am 09:35 Cloudy with Mist and Fog 41 5 37 2.8 86 86 NNW 10 17 30.10 1019 N/A 0.00 0.00
9:53 am 09:53 Cloudy with Mist and Fog 41 5 37 2.8 86 86 NNW 14 22 30.11 1020 N/A 0.00 0.00
10:09 am 10:09 Cloudy with Mist and Fog 41 5 36 2.2 82 82 NW 15 24 30.10 1019 N/A 0.00 0.00
10:53 am 10:53 Cloudy with Mist and Fog 42 5.6 36 2.2 79 79 NNW 13 20 30.12 1020 10 16 0.00 0.00
11:53 am 11:53 Cloudy with Mist and Fog 41 5 36 2.2 82 82 NW 13 20 30.11 1020 10 16 0.00 0.00
12:27 pm 12:27 Cloudy with Mist and Fog 40 4.4 36 2.2 86 86 NNW 13 20 30.08 1019 10 16 0.00 0.00
12:53 pm 12:53 Cloudy with Mist and Fog 40 4.4 35 1.7 83 83 NNW 12 19 30.09 1019 10 16 0.00 0.00
1:53 pm 13:53 Cloudy with Mist and Fog 39 3.9 35 1.7 86 86 NW 10 17 30.09 1019 10 16 0.00 0.00
2:09 pm 14:09 Cloudy with Mist and Fog 39 3.9 34 1.1 82 82 NW 12 19 30.08 1019 10 16 0.00 0.00
2:53 pm 14:53 Cloudy with Mist and Fog 39 3.9 33 0.6 79 79 NNW 12 19 30.09 1019 10 16 0.00 0.00
3:53 pm 15:53 Cloudy with Mist and Fog 39 3.9 34 1.1 82 82 NNW 8 13 30.11 1020 10 16 0.00 0.00
4:53 pm 16:53 Cloudy with Mist and Fog 39 3.9 33 0.6 79 79 NNW 10 17 30.13 1020 10 16 0.00 0.00
5:53 pm 17:53 Cloudy with Mist and Fog 38 3.3 33 0.6 83 83 NNW 12 19 30.15 1021 10 16 0.00 0.00
6:53 pm 18:53 Cloudy with Mist and Fog 38 3.3 31 -0.6 76 76 NNW 8 13 30.17 1022 10 16 0.00 0.00
7:53 pm 19:53 Cloudy with Mist and Fog 38 3.3 31 -0.6 76 76 NNW 7 11 30.19 1022 10 16 0.00 0.00
8:53 pm 20:53 Cloudy with Mist and Fog 38 3.3 30 -1.1 73 73 N 7 11 30.21 1023 10 16 0.00 0.00
9:53 pm 21:53 Cloudy with Mist and Fog 38 3.3 30 -1.1 73 73 NNW 6 9 30.22 1023 10 16 0.00 0.00
10:53 pm 22:53 Cloudy with Mist and Fog 38 3.3 31 -0.6 76 76 NNW 3 6 30.23 1024 10 16 0.00 0.00
11:53 pm 23:53 Cloudy with Mist and Fog 38 3.3 30 -1.1 73 73 NNW 5 7 30.23 1024 10 16 0.00 0.00

Powered by AerisWeather